World > North America > United States > Illinois

Laclede, Illinois Regional Weather

Lat: 38.92N, Lon: 88.66W
Wx Zone: ILZ066Web Search
Laclede Weather Warning NWS WEATHER ALERT FOR THE LACLEDE, IL AREA - Issued: 1137 AM CDT Sat May 8 2021 Laclede Weather Warning  

Helpful Tip: You can add this page to Bookmarks by pressing the Ctrl key & d key at the same time. Mac users press command & d.

Feedback


°F Click to change Laclede hourly weather to Imperial units.Click to change Laclede hourly weather to Metric units. °C
Laclede Weather Map
UTC Time: 5/8/2021, 16:53
Your Time:

Laclede, IL Regional Weather

Expires:202105081700;;793159
ASUS43 KLOT 081609
RWRIL 

ILLINOIS REGIONAL WEATHER ROUNDUP
NATIONAL WEATHER SERVICE CHICAGO/ROMEOVILLE IL
1100 AM CDT SAT MAY 08 2021

NOTE: "FAIR" INDICATES FEW OR NO CLOUDS BELOW 12,000 FEET WITH NO
SIGNIFICANT WEATHER AND/OR OBSTRUCTIONS TO VISIBILITY.

* THESE STATIONS ARE NOT UNDER NWS QUALITY CONTROL. THEY ALSO MAY NOT
  REPORT WEATHER SUCH AS PRECIPITATION OR FOG.


ILZ064>066-069>071-074>076-080>082-084>086-088>090-092>094-081700-
SOUTH-CENTRAL ILLINOIS
  
CITY           SKY/WX    TMP DP  RH WIND       PRES   REMARKS
CARBONDALE     LGT RAIN  52  41  66 E10       30.11F                  
CAIRO*         CLOUDY    55  45  70 SE9       30.11S                  
EFFINGHAM*     PTSUNNY   55  33  43 E8        30.16S                  
MARION         CLOUDY    52  39  62 SE10      30.14S                  
MT. VERNON     CLOUDY    52  37  56 SE7       30.15R                  
CENTRALIA*     CLOUDY    52  37  57 E8        30.13S                  
SALEM*         CLOUDY    52  35  51 E6        30.14R                  
$$


SKY/WX - Weather  TMP - Temperature  DP - Dew Point  RH - Relative Humidity
WIND - Wind Direction/Speed PRES - Barometric Pressure VSB - Visibility
WCI - Wind Chill Index E13G22 Wind - East Wind 13 mph/Gusts of 22 mph